• In Russia
  • List of Countries
  • For 7 days
  • Water Temperature
  • Satellite Maps
  • Weather Map
  • Weather Widgets
  • user-avatar
    Login

    Hourly Weather Tarin Kowt

    Today, 21 October, Sunday

    Time Temperature Precipitation Wind Pressure Humidity
    00:00 +9°C° 0 mm 0 mps 619 mmHg 21%
    01:00 +9°C° 0 mm 0 mps 618 mmHg 22%
    02:00 +8°C° 0 mm 0 mps 618 mmHg 22%
    03:00 +8°C° 0 mm 0 mps 618 mmHg 22%
    04:00 +8°C° 0 mm 1 mps 618 mmHg 23%
    05:00 +9°C° 0 mm 1 mps 619 mmHg 22%
    06:00 +10°C° 0 mm 1 mps 620 mmHg 20%
    07:00 +11°C° 0 mm 1 mps 620 mmHg 19%
    08:00 +13°C° 0 mm 1 mps 621 mmHg 17%
    09:00 +15°C° 0 mm 1 mps 622 mmHg 15%
    10:00 +18°C° 0 mm 1 mps 622 mmHg 13%
    11:00 +19°C° 0 mm 1 mps 622 mmHg 12%
    12:00 +18°C° 0 mm 2 mps 622 mmHg 11%
    13:00 +19°C° 0 mm 3 mps 622 mmHg 10%
    14:00 +19°C° 0 mm 3 mps 622 mmHg 10%
    15:00 +19°C° 0 mm 3 mps 622 mmHg 10%
    16:00 +19°C° 0 mm 3 mps 622 mmHg 10%
    17:00 +17°C° 0 mm 2 mps 621 mmHg 12%
    18:00 +16°C° 0 mm 1 mps 621 mmHg 13%
    19:00 +14°C° 0 mm 1 mps 620 mmHg 15%
    20:00 +13°C° 0 mm 1 mps 620 mmHg 15%
    21:00 +13°C° 0 mm 1 mps 620 mmHg 16%
    22:00 +11°C° 0 mm 0 mps 620 mmHg 17%
    23:00 +12°C° 0 mm 1 mps 620 mmHg 17%

    Tomorrow, 22 October, Monday

    Time Temperature Precipitation Wind Pressure Humidity
    00:00 +12°C° 0 mm 1 mps 620 mmHg 17%
    01:00 +12°C° 0 mm 1 mps 619 mmHg 17%
    02:00 +11°C° 0 mm 1 mps 619 mmHg 17%
    03:00 +11°C° 0 mm 1 mps 619 mmHg 18%
    04:00 +10°C° 0 mm 1 mps 619 mmHg 18%
    05:00 +11°C° 0 mm 1 mps 619 mmHg 18%
    06:00 +12°C° 0 mm 1 mps 620 mmHg 17%
    07:00 +13°C° 0 mm 1 mps 620 mmHg 16%
    08:00 +14°C° 0 mm 1 mps 621 mmHg 15%
    09:00 +16°C° 0 mm 1 mps 621 mmHg 14%
    10:00 +19°C° 0 mm 1 mps 622 mmHg 12%
    11:00 +20°C° 0 mm 1 mps 622 mmHg 13%
    12:00 +20°C° 0 mm 2 mps 621 mmHg 14%
    13:00 +20°C° 0 mm 2 mps 621 mmHg 14%
    14:00 +20°C° 0 mm 3 mps 621 mmHg 15%
    15:00 +20°C° 0 mm 3 mps 620 mmHg 15%
    16:00 +20°C° 0 mm 3 mps 620 mmHg 16%
    17:00 +19°C° 0 mm 3 mps 620 mmHg 18%
    18:00 +17°C° 0 mm 2 mps 620 mmHg 19%
    19:00 +16°C° 0 mm 2 mps 619 mmHg 21%
    20:00 +15°C° 0 mm 2 mps 619 mmHg 22%
    21:00 +15°C° 0 mm 2 mps 619 mmHg 22%
    22:00 +14°C° 0 mm 2 mps 619 mmHg 23%
    23:00 +14°C° 0 mm 2 mps 619 mmHg 24%

    Day after tomorrow, 23 October, Tuesday

    Time Temperature Precipitation Wind Pressure Humidity
    00:00 +13°C° 0 mm 2 mps 618 mmHg 25%
    01:00 +13°C° 0 mm 2 mps 618 mmHg 26%
    02:00 +12°C° 0 mm 2 mps 618 mmHg 28%
    03:00 +12°C° 0 mm 2 mps 618 mmHg 29%
    04:00 +12°C° 0 mm 2 mps 617 mmHg 30%
    05:00 +12°C° 0 mm 2 mps 618 mmHg 31%
    06:00 +13°C° 0 mm 2 mps 618 mmHg 31%
    07:00 +13°C° 0 mm 2 mps 619 mmHg 31%
    08:00 +15°C° 0 mm 2 mps 619 mmHg 28%
    09:00 +17°C° 0 mm 2 mps 620 mmHg 26%
    10:00 +18°C° 0 mm 2 mps 621 mmHg 23%
    11:00 +19°C° 0 mm 2 mps 620 mmHg 21%
    12:00 +20°C° 0 mm 2 mps 620 mmHg 19%
    13:00 +21°C° 0 mm 2 mps 620 mmHg 17%
    14:00 +21°C° 0 mm 2 mps 620 mmHg 17%
    15:00 +20°C° 0 mm 2 mps 619 mmHg 17%
    16:00 +20°C° 0 mm 2 mps 619 mmHg 17%
    17:00 +19°C° 0 mm 2 mps 619 mmHg 19%
    18:00 +18°C° 0 mm 1 mps 618 mmHg 21%
    19:00 +16°C° 0 mm 1 mps 618 mmHg 24%
    20:00 +15°C° 0 mm 1 mps 618 mmHg 25%
    21:00 +14°C° 0 mm 1 mps 618 mmHg 25%
    22:00 +14°C° 0 mm 1 mps 618 mmHg 26%
    23:00 +13°C° 0 mm 1 mps 618 mmHg 26%

    24 October, Wednesday

    Time Temperature Precipitation Wind Pressure Humidity
    00:00 +13°C° 0 mm 1 mps 617 mmHg 26%
    01:00 +13°C° 0 mm 1 mps 617 mmHg 26%
    02:00 +12°C° 0 mm 1 mps 617 mmHg 27%
    03:00 +12°C° 0 mm 1 mps 616 mmHg 27%
    04:00 +11°C° 0 mm 1 mps 616 mmHg 28%
    05:00 +12°C° 0 mm 1 mps 617 mmHg 26%
    06:00 +13°C° 0 mm 1 mps 618 mmHg 25%
    07:00 +14°C° 0 mm 1 mps 618 mmHg 24%
    08:00 +15°C° 0 mm 1 mps 619 mmHg 22%
    09:00 +18°C° 0 mm 1 mps 620 mmHg 21%
    10:00 +20°C° 0 mm 1 mps 620 mmHg 19%
    11:00 +21°C° 0 mm 1 mps 620 mmHg 18%
    12:00 +20°C° 0 mm 2 mps 620 mmHg 17%
    13:00 +21°C° 0 mm 3 mps 619 mmHg 16%
    14:00 +21°C° 0 mm 3 mps 619 mmHg 16%
    15:00 +21°C° 0 mm 3 mps 619 mmHg 16%
    16:00 +21°C° 0 mm 3 mps 619 mmHg 16%
    17:00 +19°C° 0 mm 2 mps 619 mmHg 18%
    18:00 +17°C° 0 mm 2 mps 618 mmHg 21%
    19:00 +16°C° 0 mm 1 mps 618 mmHg 23%
    20:00 +15°C° 0 mm 1 mps 618 mmHg 24%
    21:00 +15°C° 0 mm 1 mps 618 mmHg 25%
    22:00 +13°C° 0 mm 0 mps 618 mmHg 26%
    23:00 +14°C° 0 mm 1 mps 618 mmHg 26%

    25 October, Thursday

    Time Temperature Precipitation Wind Pressure Humidity
    00:00 +13°C° 0 mm 1 mps 618 mmHg 27%
    01:00 +13°C° 0 mm 1 mps 617 mmHg 27%
    02:00 +13°C° 0 mm 1 mps 617 mmHg 28%
    03:00 +12°C° 0 mm 1 mps 617 mmHg 28%
    04:00 +12°C° 0 mm 1 mps 617 mmHg 29%
    05:00 +12°C° 0 mm 1 mps 618 mmHg 28%
    06:00 +13°C° 0 mm 1 mps 618 mmHg 26%
    07:00 +14°C° 0 mm 1 mps 619 mmHg 25%
    08:00 +16°C° 0 mm 1 mps 620 mmHg 23%
    09:00 +18°C° 0 mm 1 mps 621 mmHg 21%
    10:00 +20°C° 0 mm 1 mps 621 mmHg 19%
    11:00 +20°C° 0 mm 2 mps 621 mmHg 18%
    12:00 +21°C° 0 mm 2 mps 621 mmHg 17%
    13:00 +22°C° 0 mm 3 mps 621 mmHg 16%
    14:00 +22°C° 0 mm 3 mps 621 mmHg 16%
    15:00 +21°C° 0 mm 3 mps 621 mmHg 17%
    16:00 +21°C° 0 mm 3 mps 620 mmHg 17%
    17:00 +20°C° 0 mm 2 mps 620 mmHg 19%
    18:00 +18°C° 0 mm 2 mps 620 mmHg 21%
    19:00 +16°C° 0 mm 1 mps 620 mmHg 24%
    20:00 +16°C° 0 mm 1 mps 620 mmHg 24%
    21:00 +15°C° 0 mm 1 mps 620 mmHg 25%
    22:00 +15°C° 0 mm 1 mps 620 mmHg 25%
    23:00 +15°C° 0 mm 1 mps 620 mmHg 26%

    26 October, Friday

    Time Temperature Precipitation Wind Pressure Humidity
    00:00 +14°C° 0 mm 1 mps 620 mmHg 26%
    01:00 +14°C° 0 mm 2 mps 620 mmHg 27%
    02:00 +13°C° 0 mm 2 mps 620 mmHg 28%
    03:00 +13°C° 0 mm 2 mps 620 mmHg 28%
    04:00 +13°C° 0 mm 2 mps 620 mmHg 29%
    05:00 +13°C° 0 mm 2 mps 620 mmHg 28%
    06:00 +14°C° 0 mm 1 mps 621 mmHg 27%
    07:00 +15°C° 0 mm 1 mps 622 mmHg 26%
    08:00 +16°C° 0 mm 1 mps 623 mmHg 23%
    09:00 +19°C° 0 mm 1 mps 623 mmHg 21%
    10:00 +21°C° 0 mm 1 mps 624 mmHg 19%
    11:00 +22°C° 0 mm 1 mps 624 mmHg 18%
    12:00 +23°C° 0 mm 2 mps 623 mmHg 17%
    13:00 +24°C° 0 mm 2 mps 623 mmHg 16%
    14:00 +24°C° 0 mm 3 mps 623 mmHg 16%
    15:00 +24°C° 0 mm 3 mps 623 mmHg 17%
    16:00 +22°C° 0 mm 3 mps 622 mmHg 17%
    17:00 +21°C° 0 mm 2 mps 622 mmHg 19%
    18:00 +19°C° 0 mm 2 mps 622 mmHg 21%
    19:00 +18°C° 0 mm 1 mps 622 mmHg 23%
    20:00 +18°C° 0 mm 1 mps 621 mmHg 24%
    21:00 +16°C° 0 mm 1 mps 621 mmHg 25%
    22:00 +16°C° 0 mm 1 mps 621 mmHg 26%
    23:00 +16°C° 0 mm 1 mps 621 mmHg 26%
    Show more